Clarksburg, WV

3:59 PM EST on December 10, 2019 (GMT -0500)
Benedum

Weather History for KCKB - October, 2019

Change the Weather History Date:

Wednesday, October 30, 2019

  Actual Average Record
Temperature  
Mean Temperature 59 °F -  
Max Temperature 66 °F 61 °F 80 °F (2009)
Min Temperature 52 °F 33 °F 19 °F (1928)
Degree Days  
Heating Degree Days 6    
Month to date heating degree days 176  
Growing Degree Days 8 (Base 50)    
Moisture  
Dew Point 54 °F    
Average Humidity 79    
Maximum Humidity 90    
Minimum Humidity 67    
Precipitation  
Precipitation 0.30 in - - ()
Month to date precipitation 2.77  
Year to date precipitation 34.84  
Sea Level Pressure  
Sea Level Pressure 30.07 in    
Wind  
Wind Speed 3 mph (East)    
Max Wind Speed 7 mph    
Max Gust Speed 10 mph    
Visibility 9 miles    
Events Rain    
Averages and records for this station are not official NWS values.
T = Trace of Precipitation, MM = Missing Value Source: NWS Daily Summary

Daily Weather History Graph

Daily Weather History Graph

Search for Another Location

Airport or City:

Astronomy

Oct. 30, 2019 Rise Set
Actual Time 7:46 AM EDT 6:22 PM EDT
Civil Twilight 7:18 AM EDT 6:49 PM EDT
Nautical Twilight 6:47 AM EDT 7:21 PM EDT
Astronomical Twilight 6:15 AM EDT 7:52 PM EDT
Moon 10:27 AM EDT (10/30) 8:29 PM EDT (10/30)
Length of Visible Light 11h 31m
Length of Day
10h 35m
Waxing Crescent, 8% of the Moon is Illuminated
Oct 30
Waxing Crescent
Nov 4
First Quarter
Nov 12
Full
Nov 19
Last Quarter
Nov 26
New

Hourly Weather History & Observations

Time (EDT) Temp. Dew Point Humidity Pressure Visibility Wind Dir Wind Speed Gust Speed Precip Events Conditions
12:53 AM 57.0 °F 51.1 °F 81% 30.19 in 10.0 mi Calm Calm - N/A   Clear
1:53 AM 55.9 °F 51.1 °F 84% 30.19 in 10.0 mi North 3.5 mph - N/A   Clear
2:53 AM 55.9 °F 50.0 °F 80% 30.16 in 10.0 mi NE 3.5 mph - N/A   Clear
3:53 AM 55.0 °F 50.0 °F 83% 30.16 in 10.0 mi NNE 3.5 mph - N/A   Clear
4:53 AM 55.0 °F 50.0 °F 83% 30.14 in 10.0 mi Calm Calm - N/A   Clear
5:53 AM 53.1 °F 48.9 °F 86% 30.15 in 9.0 mi NNE 3.5 mph - N/A   Clear
6:53 AM 52.0 °F 48.9 °F 89% 30.15 in 8.0 mi NNE 5.8 mph - N/A   Clear
7:53 AM 53.1 °F 48.9 °F 86% 30.15 in 8.0 mi Calm Calm - N/A   Clear
8:53 AM 54.0 °F 50.0 °F 86% 30.16 in 6.0 mi North 3.5 mph - N/A   Clear
9:53 AM 55.9 °F 51.1 °F 84% 30.15 in 8.0 mi Calm Calm - N/A   Clear
10:53 AM 59.0 °F 52.0 °F 78% 30.17 in 10.0 mi Calm Calm - N/A   Clear
11:53 AM 61.0 °F 53.1 °F 75% 30.15 in 10.0 mi South 3.5 mph - N/A   Clear
12:53 PM 63.0 °F 53.1 °F 70% 30.13 in 10.0 mi Calm Calm - N/A   Clear
1:53 PM 64.0 °F 53.1 °F 67% 30.07 in 10.0 mi East 3.5 mph - N/A   Clear
2:53 PM 64.9 °F 53.1 °F 65% 30.04 in 10.0 mi Calm Calm - N/A   Overcast
3:53 PM 64.0 °F 55.9 °F 75% 30.04 in 8.0 mi Calm Calm - 0.01 in Rain Light Rain
4:53 PM 63.0 °F 57.0 °F 81% 30.01 in 8.0 mi East 4.6 mph - 0.03 in Rain Light Rain
5:53 PM 63.0 °F 57.0 °F 81% 29.99 in 10.0 mi East 3.5 mph - 0.00 in   Overcast
6:15 PM 62.1 °F 57.9 °F 86% 30.00 in 2.5 mi ESE 4.6 mph - 0.01 in Rain Light Rain
6:53 PM 63.0 °F 59.0 °F 87% 29.97 in 2.5 mi ESE 5.8 mph - 0.08 in Rain Rain
6:58 PM 63.0 °F 59.0 °F 87% 29.99 in 5.0 mi East 3.5 mph - 0.00 in Rain Rain
7:53 PM 62.1 °F 59.0 °F 90% 29.95 in 8.0 mi East 5.8 mph - 0.13 in Rain Light Rain
8:53 PM 63.0 °F 59.0 °F 87% 29.93 in 10.0 mi Calm Calm - 0.00 in Rain Light Rain
9:53 PM 63.0 °F 59.0 °F 87% 29.93 in 10.0 mi Calm Calm - 0.00 in Rain Light Rain
10:53 PM 64.9 °F 59.0 °F 81% 29.91 in 10.0 mi South 3.5 mph - 0.03 in   Overcast
11:53 PM 66.0 °F 60.1 °F 81% 29.88 in 10.0 mi South 3.5 mph - 0.00 in Rain Light Rain